When you browse on this site, cookies collect data to enhance your experience and personalize the content and advertising you see.
Visit our Privacy Policy to learn more. By continuing to use the site, you agree to this use of cookies and data.
  • In United Kingdom
  • List of Countries
  • For 7 days
  • Water Temperature
  • Weather Map
  • Weather Widgets
  • user-avatar
    Login

    Hourly Weather Innsbruck

    Today, 14 November, Thursday

    Time Temperature Precipitation Wind Pressure Humidity
    00:00 -14°C° 0 mm 2 mps 583 mmHg 78%
    01:00 -14°C° 0 mm 2 mps 583 mmHg 77%
    02:00 -15°C° 0 mm 3 mps 583 mmHg 78%
    03:00 -15°C° 0 mm 3 mps 583 mmHg 79%
    04:00 -15°C° 0 mm 3 mps 583 mmHg 80%
    05:00 -15°C° 0 mm 4 mps 583 mmHg 81%
    06:00 -15°C° 0 mm 4 mps 583 mmHg 82%
    07:00 -15°C° 0 mm 4 mps 583 mmHg 84%
    08:00 -12°C° 0 mm 4 mps 584 mmHg 84%
    09:00 -10°C° 0 mm 4 mps 585 mmHg 83%
    10:00 -8°C° 0 mm 4 mps 586 mmHg 83%
    11:00 -8°C° 0 mm 4 mps 586 mmHg 83%
    12:00 -7°C° 0 mm 4 mps 586 mmHg 83%
    13:00 -5°C° 0 mm 4 mps 586 mmHg 83%
    14:00 -7°C° 0 mm 4 mps 585 mmHg 84%
    15:00 -8°C° 0 mm 4 mps 584 mmHg 85%
    16:00 -9°C° 0 mm 4 mps 583 mmHg 86%
    17:00 -10°C° 0 mm 4 mps 583 mmHg 86%
    18:00 -11°C° 0 mm 4 mps 583 mmHg 86%
    19:00 -13°C° 0 mm 5 mps 583 mmHg 87%
    20:00 -12°C° 0 mm 5 mps 583 mmHg 88%
    21:00 -12°C° 0 mm 5 mps 583 mmHg 90%
    22:00 -11°C° 0 mm 5 mps 583 mmHg 91%
    23:00 -11°C° 0 mm 5 mps 583 mmHg 91%

    Tomorrow, 15 November, Friday

    Time Temperature Precipitation Wind Pressure Humidity
    00:00 -11°C° 0 mm 5 mps 583 mmHg 91%
    01:00 -10°C° 0 mm 5 mps 582 mmHg 91%
    02:00 -10°C° 0.1 mm 5 mps 582 mmHg 91%
    03:00 -10°C° 0.1 mm 5 mps 582 mmHg 91%
    04:00 -8°C° 0.1 mm 5 mps 582 mmHg 90%
    05:00 -8°C° 0.4 mm 5 mps 581 mmHg 90%
    06:00 -7°C° 0.4 mm 5 mps 581 mmHg 91%
    07:00 -7°C° 0.4 mm 5 mps 581 mmHg 91%
    08:00 -5°C° 0.7 mm 4 mps 582 mmHg 92%
    09:00 -4°C° 0.7 mm 4 mps 583 mmHg 93%
    10:00 -3°C° 0.7 mm 4 mps 583 mmHg 94%
    11:00 -2°C° 1.6 mm 3 mps 584 mmHg 95%
    12:00 -2°C° 1.6 mm 3 mps 584 mmHg 96%
    13:00 -1°C° 1.6 mm 2 mps 584 mmHg 96%
    14:00 -2°C° 2.2 mm 2 mps 584 mmHg 97%
    15:00 -3°C° 2.2 mm 2 mps 584 mmHg 98%
    16:00 -3°C° 2.2 mm 2 mps 584 mmHg 98%
    17:00 -3°C° 2.6 mm 2 mps 584 mmHg 98%
    18:00 -4°C° 2.6 mm 2 mps 584 mmHg 98%
    19:00 -4°C° 2.6 mm 2 mps 585 mmHg 98%
    20:00 -2°C° 1 mm 1 mps 585 mmHg 98%
    21:00 -3°C° 1 mm 1 mps 585 mmHg 97%
    22:00 -3°C° 1 mm 1 mps 585 mmHg 97%
    23:00 -3°C° 0.5 mm 1 mps 585 mmHg 97%

    Day after tomorrow, 16 November, Saturday

    Time Temperature Precipitation Wind Pressure Humidity
    00:00 -3°C° 0.5 mm 1 mps 585 mmHg 97%
    01:00 -5°C° 0.5 mm 2 mps 586 mmHg 97%
    02:00 -5°C° 0.4 mm 2 mps 586 mmHg 96%
    03:00 -6°C° 0.4 mm 2 mps 586 mmHg 95%
    04:00 -6°C° 0.4 mm 2 mps 586 mmHg 94%
    05:00 -7°C° 0.2 mm 3 mps 586 mmHg 93%
    06:00 -8°C° 0.2 mm 3 mps 586 mmHg 92%
    07:00 -8°C° 0.2 mm 3 mps 587 mmHg 91%
    08:00 -7°C° 0.1 mm 3 mps 588 mmHg 91%
    09:00 -6°C° 0.1 mm 3 mps 589 mmHg 91%
    10:00 -5°C° 0.1 mm 3 mps 590 mmHg 91%
    11:00 -5°C° 0 mm 3 mps 590 mmHg 91%
    12:00 -5°C° 0 mm 3 mps 590 mmHg 91%
    13:00 -4°C° 0 mm 3 mps 591 mmHg 91%
    14:00 -4°C° 0 mm 2 mps 590 mmHg 91%
    15:00 -5°C° 0 mm 2 mps 590 mmHg 90%
    16:00 -6°C° 0 mm 2 mps 590 mmHg 90%
    17:00 -6°C° 0 mm 2 mps 590 mmHg 89%
    18:00 -7°C° 0 mm 2 mps 590 mmHg 87%
    19:00 -7°C° 0 mm 2 mps 590 mmHg 86%
    20:00 -7°C° 0.1 mm 2 mps 589 mmHg 87%
    21:00 -7°C° 0.1 mm 2 mps 589 mmHg 88%
    22:00 -7°C° 0.1 mm 2 mps 589 mmHg 90%
    23:00 -7°C° 0.5 mm 2 mps 588 mmHg 91%

    17 November, Sunday

    Time Temperature Precipitation Wind Pressure Humidity
    00:00 -6°C° 0.5 mm 2 mps 588 mmHg 93%
    01:00 -6°C° 0.5 mm 2 mps 587 mmHg 95%
    02:00 -6°C° 0.7 mm 2 mps 587 mmHg 95%
    03:00 -6°C° 0.7 mm 2 mps 586 mmHg 95%
    04:00 -6°C° 0.7 mm 2 mps 586 mmHg 95%
    05:00 -6°C° 1.2 mm 2 mps 585 mmHg 95%
    06:00 -5°C° 1.2 mm 2 mps 585 mmHg 96%
    07:00 -3°C° 1.2 mm 1 mps 585 mmHg 96%
    08:00 -2°C° 2.3 mm 1 mps 584 mmHg 97%
    09:00 -3°C° 2.3 mm 2 mps 584 mmHg 97%
    10:00 -2°C° 2.3 mm 2 mps 584 mmHg 98%
    11:00 -3°C° 5.9 mm 2 mps 584 mmHg 98%
    12:00 -3°C° 5.9 mm 2 mps 583 mmHg 99%
    13:00 -3°C° 5.9 mm 2 mps 583 mmHg 99%
    14:00 -3°C° 2.5 mm 2 mps 583 mmHg 99%
    15:00 -3°C° 2.5 mm 2 mps 583 mmHg 98%
    16:00 -1°C° 2.5 mm 1 mps 582 mmHg 98%
    17:00 -3°C° 0.7 mm 2 mps 583 mmHg 97%
    18:00 -4°C° 0.7 mm 2 mps 583 mmHg 95%
    19:00 -4°C° 0.7 mm 2 mps 583 mmHg 94%
    20:00 -5°C° 0.3 mm 3 mps 583 mmHg 93%
    21:00 -6°C° 0.3 mm 3 mps 584 mmHg 93%
    22:00 -6°C° 0.3 mm 3 mps 584 mmHg 92%
    23:00 -6°C° 0.3 mm 3 mps 584 mmHg 92%

    18 November, Monday

    Time Temperature Precipitation Wind Pressure Humidity
    00:00 -6°C° 0.3 mm 3 mps 585 mmHg 93%
    01:00 -6°C° 0.3 mm 3 mps 585 mmHg 93%
    02:00 -6°C° 0.2 mm 3 mps 585 mmHg 93%
    03:00 -7°C° 0.2 mm 3 mps 585 mmHg 93%
    04:00 -7°C° 0.2 mm 3 mps 585 mmHg 92%
    05:00 -8°C° 0 mm 3 mps 585 mmHg 92%
    06:00 -9°C° 0 mm 3 mps 585 mmHg 92%
    07:00 -8°C° 0 mm 2 mps 585 mmHg 92%
    08:00 -7°C° 0 mm 2 mps 585 mmHg 92%
    09:00 -6°C° 0 mm 2 mps 586 mmHg 92%
    10:00 -3°C° 0 mm 1 mps 587 mmHg 92%
    11:00 -3°C° 0 mm 1 mps 587 mmHg 92%
    12:00 -2°C° 0 mm 1 mps 587 mmHg 93%
    13:00 -2°C° 0 mm 1 mps 587 mmHg 93%
    14:00 -3°C° 0.2 mm 1 mps 587 mmHg 94%
    15:00 -3°C° 0.2 mm 1 mps 587 mmHg 96%
    16:00 -4°C° 0.2 mm 1 mps 587 mmHg 97%
    17:00 -4°C° 0.2 mm 1 mps 587 mmHg 96%
    18:00 -6°C° 0.2 mm 1 mps 588 mmHg 95%
    19:00 -7°C° 0.2 mm 1 mps 588 mmHg 95%
    20:00 -8°C° 0.1 mm 1 mps 588 mmHg 94%
    21:00 -8°C° 0.1 mm 1 mps 588 mmHg 94%
    22:00 -9°C° 0.1 mm 2 mps 588 mmHg 93%
    23:00 -10°C° 0 mm 2 mps 588 mmHg 93%

    19 November, Tuesday

    Time Temperature Precipitation Wind Pressure Humidity
    00:00 -10°C° 0 mm 2 mps 588 mmHg 93%
    01:00 -12°C° 0 mm 2 mps 588 mmHg 92%
    02:00 -10°C° 0 mm 1 mps 588 mmHg 91%
    03:00 -10°C° 0 mm 1 mps 588 mmHg 89%
    04:00 -10°C° 0 mm 1 mps 588 mmHg 87%
    05:00 -11°C° 0 mm 1 mps 588 mmHg 87%
    06:00 -11°C° 0 mm 1 mps 588 mmHg 86%
    07:00 -12°C° 0 mm 1 mps 588 mmHg 86%
    08:00 -10°C° 0 mm 1 mps 589 mmHg 85%
    09:00 -8°C° 0 mm 0 mps 590 mmHg 85%
    10:00 -6°C° 0 mm 0 mps 591 mmHg 85%
    11:00 -6°C° 0 mm 0 mps 591 mmHg 86%
    12:00 -5°C° 0 mm 0 mps 591 mmHg 86%
    13:00 -4°C° 0 mm 0 mps 591 mmHg 86%
    14:00 -5°C° 0 mm 0 mps 591 mmHg 89%
    15:00 -6°C° 0 mm 0 mps 590 mmHg 91%
    16:00 -7°C° 0 mm 0 mps 590 mmHg 94%
    17:00 -7°C° 0 mm 1 mps 590 mmHg 90%
    18:00 -8°C° 0 mm 1 mps 590 mmHg 87%
    19:00 -10°C° 0 mm 2 mps 590 mmHg 84%
    20:00 -12°C° 0 mm 2 mps 590 mmHg 82%
    21:00 -12°C° 0 mm 2 mps 590 mmHg 80%
    22:00 -13°C° 0 mm 3 mps 590 mmHg 78%
    23:00 -13°C° 0 mm 3 mps 590 mmHg 77%
    Show more